Weather in Rumyantsevo

Russia / Ulyanovsk Oblast     53°31′42″N   46°59′15″E
temp.,
°C
wind,
m/s
gust,
m/s
humid.,
%
clouds,
%
prec.,
mm/h
press.,
hPa
HPBL,
m
14 april, wed
wed1401:00+8se22630 0.0 103017
04:00+7ese22725 0.0 103010
07:00+7ese22745 0.0 102922
10:00+12se58635 0.0 1027392
13:00+16se68545 0.0 1026962
16:00+17se68502 0.0 10241191
19:00+14se37665 0.0 1023182
22:00+11se22800 0.0 102318
15 april, thu
thu1501:00+9ese22850 0.0 102215
04:00+8ese22854 0.0 102213
07:00+8se228593 0.0 102118
10:00+13se346369 0.0 1020321
13:00+17se3347100 0.0 1019864
16:00+19se344215 0.0 10181376
19:00+16ese22554 0.0 101720
22:00+13e11625 0.0 101811
16 april, fri
fri1601:00+11ene227082 0.0 101711
04:00+9ne227985 0.0 101821
07:00+8ne388353 0.0 1019145
10:00+13ene576228 0.0 1019470
13:00+15ne665953 0.0 1020737
16:00+14ne676219 0.0 1021864
19:00+11ne58756 0.0 1022602
22:00+8ne5118126 0.0 1023362
17 april, sat
sat1701:00+6ne411785 0.0 1023320
04:00+4ne410745 0.0 1024279
07:00+4ne512755 0.0 1025385
10:00+8ene695565 0.0 1026725
13:00+11ne78405 0.0 10261068
16:00+11ne67355 0.0 10261214
19:00+8ne58455 0.0 1026607
22:00+5ne310575 0.0 1028241
18 april, sun
sun1801:00+4ne38655 0.0 1028156
04:00+2ne37745 0.0 1029133
07:00+2ne38775 0.0 1030228
10:00+7ene56545 0.0 1030837
13:00+10ene56425 0.0 10291346
16:00+11ene564133 0.0 10291433
19:00+9ne575186 0.0 1029565
22:00+5ne396556 0.0 1031237